Regional Weather Roundup
Issued by NWS

Home | Current Version | Previous Version | Graphics & Text | Print | Product List | Glossary On
Versions: 1 2 3 4 5 6 7 8 9 10 11 12 13 14 15 16 17 18 19 20 21 22 23 24 25 26 27 28 29 30 31 32 33 34 35 36 37 38 39 40 41 42 43 44 45 46 47 48 49 50
000
ASUS45 KBOU 272007
RWRCO

WEATHER ROUNDUP FOR COLORADO
NATIONAL WEATHER SERVICE DENVER/BOULDER CO
200 PM MDT MON APR 27 2015

NOTE: "FAIR" INDICATES FEW OR NO CLOUDS BELOW 12000 FEET WITH NO
SIGNIFICANT WEATHER AND/OR OBSTRUCTIONS TO VISIBILITY.

COZ001>005-013-030-031-272100-
...NORTHWEST COLORADO...

CITY           SKY/WX    TMP DP  RH WIND       PRES   REMARKS
CRAIG          MOSUNNY   57  39  51 W12       30.17F
HAYDEN         MOSUNNY   55  36  47 NW16      30.16F
MEEKER         CLOUDY    51  40  65 W12       30.19F
MOUNT WERNER   NOT AVBL
STEAMBOAT SPGS PTSUNNY   56  33  42 W7        30.16S
WALDEN         PTSUNNY   50  28  43 E3        30.21S
$$

COZ006>008-011-272100-
...WEST CENTRAL VALLEYS...

CITY           SKY/WX    TMP DP  RH WIND       PRES   REMARKS
GRAND JUNCTION SUNNY     61  43  51 N8        30.10F
MONTROSE       PTSUNNY   57  39  51 N7        30.13F
EAGLE          PTSUNNY   57  28  33 CALM      30.14F
RIFLE          PTSUNNY   63  38  39 NW12G17   30.10F
DELTA          MOSUNNY   63  43  47 MISG      30.10F
NUCLA          PTSUNNY   61  30  31 CALM      30.13S
$$

COZ017>023-064>068-272100-
...SOUTHWEST COLORADO...

CITY           SKY/WX    TMP DP  RH WIND       PRES   REMARKS
DURANGO        MOSUNNY   61  36  39 SW13      30.07F
CORTEZ         CLOUDY    61  33  35 W12       30.08R
PAGOSA SPRINGS MOSUNNY   59  25  27 NE14G21   30.09F
TELLURIDE      MOSUNNY   48  30  49 CALM      30.18S
WOLF CREEK PAS NOT AVBL
$$

COZ009-010-012-014-032>034-037-058>063-272100-
...CENTRAL COLORADO...

CITY           SKY/WX    TMP DP  RH WIND       PRES   REMARKS
ASPEN          CLOUDY    53  28  38 N8        30.14S
BUENA VISTA    CLOUDY    46  31  57 E8        30.23R
COPPER MTN     CLOUDY    37  27  65 E10G17    30.31S
BERTHOUD PASS  HAZE      25  16  68 E23       30.34R VSB<1/4 WCI  10
COTTONWOOD PAS CLOUDY    39  32  75 SE7       30.27R
GUNNISON       MOSUNNY   54  25  32 E9        30.15S
KREMMLING      PTSUNNY   55  28  35 N8        30.17S
LEADVILLE      MIX PCPN  37  24  59 S7        30.24R
MONARCH PASS   CLOUDY    28  27  93 E24       30.35F WCI  14
SALIDA         CLOUDY    45  38  77 SE9G16    30.30R
SUNLIGHT       CLOUDY    37  32  81 N5        30.30S
WILKERSON PASS FOG      N/A N/A N/A NE10G16   30.33R VSB 1/4
$$

COZ069>075-272100-
...SAN LUIS VALLEY/SANGRE DE CRISTO MOUNTAINS...

CITY           SKY/WX    TMP DP  RH WIND       PRES   REMARKS
ALAMOSA        MOSUNNY   54  28  36 N14G25    30.13F
LA VETA PASS   SNOW      28  27  93 MISG      30.25R VSB 1/4
SAGUACHE       CLOUDY    54  32  43 E16G22    30.16S
$$

COZ035-036-038>040-272100-
...NORTHERN COLORADO FRONT RANGE...

CITY           SKY/WX    TMP DP  RH WIND       PRES   REMARKS
DENVER INTL AP LGT RAIN  43  40  89 N7        30.28S FOG
DMNS CITY PARK   N/A     44  38  78 NE8       30.28S
AURORA         CLOUDY    42  42  99 N10       30.28S
FRONT RANGE AP NOT AVBL
ERIE MUNI ARPT CLOUDY    46  41  82 NE6       30.29R
BOULDER MUN AP CLOUDY    45  41  87 E6        30.28S
CENTENNIAL     CLOUDY    42  38  85 N7        30.28S
BROOMFIELD     NOT AVBL
FORT COLLINS   CLOUDY    48  39  71 NE5       30.30S
LONGMONT       CLOUDY    51  40  66 CALM      30.30S
$$

COZ041-046-047-076>085-087-088-272100-
...PIKES PEAK/PALMER DIVIDE AND SOUTHERN FOOTHILLS...

CITY           SKY/WX    TMP DP  RH WIND       PRES   REMARKS
COLO. SPRINGS  CLOUDY    43  36  76 N16       30.26R
A. F. ACADEMY  CLOUDY    41  37  86 NW15      30.26S
ELLICOTT       CLOUDY   N/A N/A N/A NE20      30.24S
FALCON         CLOUDY    41  36  83 N16       30.27S
FORT CARSON    CLOUDY    46  37  71 N15       30.23S
LIMON          CLOUDY    47  35  63 N18       30.24S
MONUMENT HILL  LGT RAIN  36  36 100 N9        30.26S
TRINIDAD       CLOUDY    39  37  92 N17G24    30.22R
$$

COZ042>045-048>051-090-091-272100-
...NORTHEAST COLORADO...

CITY           SKY/WX    TMP DP  RH WIND       PRES   REMARKS
GREELEY ARPT   CLOUDY    45  36  70 CALM      30.30S
AKRON          CLOUDY    51  36  56 VRB7      30.25S
BURLINGTON     MOSUNNY   53  34  48 NE18G24   30.20F
WRAY           PTSUNNY   59  34  39 N16       30.23S
STERLING       PTSUNNY   52  37  58 N7        30.25F
HOLYOKE        PTSUNNY   59  36  41 N8G16     30.24F
FORT MORGAN    CLOUDY    50  40  68 N8        30.28S
$$

COZ086-089-092>099-272100-
...SOUTHEAST COLORADO...

CITY           SKY/WX    TMP DP  RH WIND       PRES   REMARKS
PUEBLO         CLOUDY    47  39  74 NE14      30.24S
LA JUNTA       PTSUNNY   56  34  43 NE21G26   30.18F
LAMAR          PTSUNNY   57  32  38 NE24G35   30.14F
SPRINGFIELD      N/A     46  35  65 N24G35    30.12S
$$



USA.gov is the U.S. government's official web portal to all federal, state and local government web resources and services.